Douglas, WY

1:12 AM MDT on June 23, 2017 (GMT -0600)
Converse County

Weather History for KDGW - March, 2013

Change the Weather History Date:

Thursday, March 21, 2013

  Actual Average Record
Temperature  
Mean Temperature 36 °F 37 °F  
Max Temperature 49 °F 51 °F 74 °F (2009)
Min Temperature 23 °F 24 °F 2 °F (2002)
Degree Days  
Heating Degree Days 29 28  
Month to date heating degree days 595 653  
Since 1 July heating degree days 5626 6053  
Cooling Degree Days 0 0  
Month to date cooling degree days 0 0  
Year to date cooling degree days 0 0  
Moisture  
Dew Point 28 °F    
Average Humidity 69    
Maximum Humidity 92    
Minimum Humidity 46    
Precipitation  
Precipitation T in 0.04 in 0.12 in (2001)
Month to date precipitation 0.05 0.51  
Year to date precipitation 0.54 1.30  
Sea Level Pressure  
Sea Level Pressure 29.68 in    
Wind  
Wind Speed 10 mph (NW)    
Max Wind Speed 26 mph    
Max Gust Speed 32 mph    
Visibility 6 miles    
Events Fog , Rain , Snow    
T = Trace of Precipitation, MM = Missing Value Source: NWS Daily Summary

Daily Weather History Graph

Daily Weather History Graph

Search for Another Location

Airport or City:

Trip Planner

Search our weather history database for the weather conditions in past years. The results will help you decide how hot, cold, wet, or windy it might be!

Date:

Astronomy

Mar. 21, 2013 Rise Set
Actual Time 7:02 AM MDT 7:15 PM MDT
Civil Twilight 6:34 AM MDT 7:43 PM MDT
Nautical Twilight 6:01 AM MDT 8:16 PM MDT
Astronomical Twilight 5:27 AM MDT 8:50 PM MDT
Moon 1:41 PM MDT (3/21) 3:33 AM MDT (3/21)
Length of Visible Light 13h 09m
Length of Day
12h 12m
Waxing Gibbous, 69% of the Moon is Illuminated
Mar 21
Waxing Gibbous
Mar 27
Full
Apr 2
Last Quarter
Apr 10
New
Apr 18
First Quarter

Hourly Weather History & Observations

Time (MDT) Temp. Windchill Dew Point Humidity Pressure Visibility Wind Dir Wind Speed Gust Speed Precip Events Conditions
12:53 AM 37.9 °F 35.5 °F 27.0 °F 65% 29.61 in 10.0 mi Variable 3.5 mph - N/A   Clear
1:53 AM 39.0 °F 33.4 °F 27.0 °F 62% 29.59 in 10.0 mi NNW 8.1 mph - N/A   Clear
2:53 AM 37.0 °F - 26.1 °F 65% 29.57 in 10.0 mi Calm Calm - N/A   Clear
3:53 AM 35.1 °F - 27.0 °F 72% 29.56 in 10.0 mi Calm Calm - N/A   Clear
4:53 AM 33.1 °F 30.0 °F 26.1 °F 75% 29.55 in 10.0 mi SE 3.5 mph - N/A   Clear
5:53 AM 30.0 °F - 24.1 °F 79% 29.55 in 10.0 mi Calm Calm - N/A   Clear
6:53 AM 28.9 °F 21.9 °F 23.0 °F 78% 29.55 in 10.0 mi ESE 6.9 mph - N/A   Clear
7:53 AM 37.0 °F 34.5 °F 28.9 °F 73% 29.51 in 10.0 mi Variable 3.5 mph - N/A   Clear
8:53 AM 43.0 °F 41.3 °F 30.9 °F 62% 29.49 in 10.0 mi NNE 3.5 mph - N/A   Clear
9:53 AM 48.0 °F - 30.0 °F 50% 29.46 in 10.0 mi Calm Calm - N/A   Clear
10:53 AM 48.0 °F - 28.9 °F 48% 29.48 in 10.0 mi NW 11.5 mph - N/A   Overcast
11:53 AM 37.9 °F 28.5 °F 32.0 °F 79% 29.56 in 10.0 mi North 17.3 mph 25.3 mph 0.00 in Rain Light Rain
12:53 PM 41.0 °F 31.9 °F 25.0 °F 53% 29.57 in 10.0 mi North 19.6 mph 25.3 mph 0.00 in   Overcast
1:53 PM 35.1 °F 23.3 °F 30.0 °F 82% 29.65 in 2.5 mi NW 23.0 mph 29.9 mph 0.00 in Snow Light Snow
2:00 PM 35.6 °F 24.5 °F 30.2 °F 81% 29.64 in 3.0 mi NW 20.7 mph 27.6 mph 0.00 in Snow Light Snow
2:15 PM 33.8 °F 22.2 °F 30.2 °F 87% 29.65 in 1.8 mi NW 20.7 mph - 0.00 in Snow Light Snow
2:34 PM 33.8 °F 21.6 °F 30.2 °F 87% 29.65 in 3.0 mi NW 23.0 mph 32.2 mph 0.00 in Snow Light Snow
2:43 PM 35.6 °F 23.7 °F 30.2 °F 81% 29.65 in 9.0 mi NNW 24.2 mph 29.9 mph 0.00 in Snow Light Snow
2:53 PM 36.0 °F 24.4 °F 30.0 °F 79% 29.67 in 10.0 mi NNW 23.0 mph 28.8 mph 0.00 in   Overcast
3:16 PM 35.6 °F 24.0 °F 28.4 °F 75% 29.66 in 10.0 mi NNW 23.0 mph 31.1 mph N/A   Overcast
3:53 PM 34.0 °F 23.0 °F 28.0 °F 79% 29.71 in 4.0 mi NW 18.4 mph - 0.00 in Snow Light Snow
4:08 PM 33.8 °F 23.5 °F 28.4 °F 81% 29.69 in 5.0 mi NNW 16.1 mph 24.2 mph 0.00 in Snow Light Snow
4:25 PM 33.8 °F 22.2 °F 26.6 °F 75% 29.69 in 6.0 mi NW 20.7 mph 25.3 mph 0.00 in Snow Light Snow
4:53 PM 33.1 °F 22.6 °F 28.0 °F 82% 29.75 in 2.0 mi NW 16.1 mph - 0.00 in Snow Light Snow
5:08 PM 33.8 °F 22.8 °F 28.4 °F 81% 29.72 in 6.0 mi NNW 18.4 mph 25.3 mph 0.00 in Snow Light Snow
5:19 PM 32.0 °F 20.5 °F 26.6 °F 80% 29.73 in 1.8 mi NNW 18.4 mph - 0.00 in Snow Light Snow
5:24 PM 32.0 °F 20.8 °F 28.4 °F 87% 29.73 in 0.8 mi NNW 17.3 mph - 0.00 in Snow Light Snow
5:44 PM 30.2 °F 17.8 °F 28.4 °F 93% 29.74 in 0.2 mi NW 19.6 mph 24.2 mph 0.00 in Fog , Snow Snow
5:53 PM 30.0 °F 18.7 °F 28.0 °F 92% 29.82 in 0.5 mi NW 16.1 mph - 0.00 in Fog , Snow Snow
6:00 PM 30.2 °F 18.9 °F 28.4 °F 93% 29.75 in 0.5 mi NW 16.1 mph - 0.00 in Fog , Snow Snow
6:07 PM 30.2 °F 19.3 °F 28.4 °F 93% 29.75 in 0.5 mi NW 15.0 mph - 0.00 in Fog , Snow Snow
6:17 PM 30.2 °F 18.9 °F 28.4 °F 93% 29.75 in 0.8 mi NW 16.1 mph - 0.00 in Snow Light Snow
6:41 PM 30.2 °F 20.2 °F 28.4 °F 93% 29.76 in 1.0 mi NW 12.7 mph - 0.00 in Snow Light Snow
6:53 PM 30.0 °F 18.3 °F 27.0 °F 88% 29.84 in 2.0 mi NW 17.3 mph 23.0 mph 0.00 in Snow Light Snow
7:01 PM 30.2 °F 18.9 °F 26.6 °F 86% 29.77 in 5.0 mi NNW 16.1 mph - 0.00 in Snow Light Snow
7:16 PM 30.2 °F 18.9 °F 24.8 °F 80% 29.78 in 9.0 mi NNW 16.1 mph - 0.00 in   Overcast
7:53 PM 30.0 °F 18.3 °F 25.0 °F 82% 29.85 in 10.0 mi NW 17.3 mph - 0.00 in   Overcast
8:53 PM 28.9 °F 18.6 °F 25.0 °F 85% 29.86 in 10.0 mi WNW 12.7 mph - N/A   Overcast
9:53 PM 27.0 °F 17.3 °F 24.1 °F 89% 29.86 in 10.0 mi West 10.4 mph - 0.00 in   Mostly Cloudy
10:53 PM 28.0 °F 18.1 °F 25.0 °F 88% 29.86 in 10.0 mi West 11.5 mph - N/A   Overcast
11:53 PM 24.1 °F - 21.0 °F 88% 29.91 in 10.0 mi Calm Calm - N/A   Mostly Cloudy